CW0234 Weather Reports


Display with metric or nautical units.
time (UTC)temp
F
wind
direction
speed
MPH
gust
MPH
rain 1hr
in
rain 24hr
in
rain mn
in
humidity
%
barometer
mb
20260503184154 62 166 3.0 3.0 0.00 0.00 0.00 62 1012.1
20260503183650 62 172 0.0 0.0 0.00 0.00 0.00 61 1012.2
20260503183148 61 176 0.0 1.0 0.00 0.00 0.00 62 1012.2
20260503182646 61 184 3.0 3.0 0.00 0.00 0.00 64 1012.3
20260503182144 61 171 0.0 1.0 0.00 0.00 0.00 65 1011.9
20260503181641 60 175 0.0 0.0 0.00 0.00 0.00 66 1012.1
20260503181137 60 179 0.0 1.0 0.00 0.00 0.00 67 1012.2
20260503180634 60 184 1.0 2.0 0.00 0.00 0.00 69 1012.1
20260503180132 59 188 2.0 2.0 0.00 0.00 0.00 69 1012.2
20260503175629 59 180 3.0 3.0 0.00 0.00 0.00 70 1012.3
20260503175126 59 185 3.0 3.0 0.00 0.00 0.00 70 1012.1
20260503174623 59 189 3.0 3.0 0.00 0.00 0.00 73 1012.3
20260503174120 58 180 3.0 5.0 0.00 0.00 0.00 75 1012.2
20260503173615 58 179 3.0 3.0 0.00 0.00 0.00 76 1012.2
20260503173112 59 176 2.0 2.0 0.00 0.00 0.00 74 1012.1
20260503172609 60 184 3.0 3.0 0.00 0.00 0.00 73 1012.1
20260503172106 60 176 0.0 0.0 0.00 0.00 0.00 71 1012.3
20260503171603 60 172 0.0 1.0 0.00 0.00 0.00 72 1012.0
20260503171100 59 168 0.0 0.0 0.00 0.00 0.00 75 1012.1
20260503170556 59 178 2.0 3.0 0.00 0.00 0.00 75 1012.1
20260503150949 56 169 0.0 0.0 0.00 0.00 0.00 83 1011.9
20260503150445 56 171 0.0 1.0 0.00 0.00 0.00 83 1011.8
20260503131338 55 171 0.0 0.0 0.00 0.00 0.00 85 1010.4
20260503130836 54 171 0.0 0.0 0.00 0.00 0.00 85 1010.6
20260503130333 54 171 0.0 0.0 0.00 0.00 0.00 85 1010.5
20260503110727 56 174 0.0 0.0 0.00 0.00 0.00 80 1010.3
20260503110224 56 171 0.0 0.0 0.00 0.00 0.00 80 1010.3
20260503100150 56 173 0.0 1.0 0.00 0.00 0.00 80 1010.2
20260503090109 56 171 0.0 0.0 0.00 0.00 0.00 80 1010.4
20260503081539 56 173 0.0 0.0 0.00 0.00 0.00 79 1011.1
20260503081036 56 172 0.0 0.0 0.00 0.00 0.00 79 1011.1
20260503080532 56 173 0.0 0.0 0.00 0.00 0.00 79 1011.0
20260503072506 56 198 1.0 2.0 0.00 0.00 0.00 80 1011.1
20260503072003 56 161 0.0 1.0 0.00 0.00 0.00 80 1011.2
20260503071500 56 176 1.0 1.0 0.00 0.00 0.00 80 1011.2
20260503070955 56 184 1.0 1.0 0.00 0.00 0.00 80 1011.2
20260503070453 56 149 1.0 2.0 0.00 0.00 0.00 80 1011.1
20260503054912 57 193 2.0 2.0 0.00 0.00 0.00 79 1011.4
20260503054408 57 285 3.0 3.0 0.00 0.00 0.00 79 1011.4
20260503053906 57 170 1.0 1.0 0.00 0.00 0.00 79 1011.5
20260503053404 57 174 1.0 1.0 0.00 0.00 0.00 79 1011.6
20260503052859 57 172 0.0 0.0 0.00 0.00 0.00 79 1011.6
20260503052357 57 173 1.0 1.0 0.00 0.00 0.00 79 1011.6
20260503051853 57 172 1.0 1.0 0.00 0.00 0.00 78 1011.5
20260503051349 57 173 2.0 2.0 0.00 0.00 0.00 78 1011.7
20260503050846 57 172 0.0 0.0 0.00 0.00 0.00 79 1011.7
20260503050343 57 173 0.0 0.0 0.00 0.00 0.00 79 1011.5
20260503045840 57 175 1.0 2.0 0.00 0.00 0.00 78 1011.6
20260503045338 57 189 2.0 2.0 0.00 0.00 0.00 78 1011.4
20260503044834 57 179 1.0 1.0 0.00 0.00 0.00 79 1011.6
20260503044331 57 119 2.0 3.0 0.00 0.00 0.00 79 1011.3
20260503043828 57 173 0.0 1.0 0.00 0.00 0.00 79 1011.4
20260503043325 57 227 3.0 5.0 0.00 0.00 0.00 79 1011.4
20260503042821 57 170 2.0 2.0 0.00 0.00 0.00 79 1011.3
20260503042318 57 166 0.0 0.0 0.00 0.00 0.00 79 1011.2
20260503041814 57 179 1.0 1.0 0.00 0.00 0.00 79 1011.5
20260503041312 57 325 3.0 5.0 0.00 0.00 0.00 78 1011.3
20260503040809 57 213 1.0 2.0 0.00 0.00 0.00 78 1011.1
20260503040307 57 195 1.0 2.0 0.00 0.00 0.00 79 1011.1
20260503035803 57 179 1.0 1.0 0.00 0.00 0.00 79 1011.0
20260503035301 57 161 2.0 2.0 0.00 0.00 0.00 79 1011.0
20260503034758 57 349 3.0 5.0 0.00 0.00 0.00 79 1011.1
20260503034255 57 166 0.0 1.0 0.00 0.00 0.00 79 1010.8
20260503033752 57 273 2.0 3.0 0.00 0.00 0.00 79 1010.8
20260503033249 57 358 3.0 3.0 0.00 0.00 0.00 78 1011.0
20260503032747 58 74 3.0 6.0 0.00 0.00 0.00 78 1010.5
20260503032246 58 175 2.0 2.0 0.00 0.00 0.00 78 1010.9
20260503031743 58 237 2.0 2.0 0.00 0.00 0.00 79 1010.6
20260503031241 58 323 3.0 3.0 0.00 0.00 0.00 79 1010.6
20260503030737 58 181 2.0 2.0 0.00 0.00 0.00 79 1010.6
20260503030234 58 6 4.0 6.0 0.00 0.00 0.00 78 1010.6
20260503025730 58 70 3.0 3.0 0.00 0.00 0.00 78 1010.5
20260503025228 58 140 1.0 1.0 0.00 0.00 0.00 77 1010.4
20260503024724 58 331 1.0 2.0 0.00 0.00 0.00 77 1010.5
20260503024222 59 187 2.0 2.0 0.00 0.00 0.00 77 1010.5
20260503023718 59 181 2.0 2.0 0.00 0.00 0.00 77 1010.3
20260503023215 59 144 3.0 3.0 0.00 0.00 0.00 76 1010.3
20260503022711 59 176 1.0 1.0 0.00 0.00 0.00 76 1010.2
20260503022211 59 4 3.0 3.0 0.00 0.00 0.00 76 1010.2
20260503021708 60 0 3.0 3.0 0.00 0.00 0.00 75 1010.2
20260503021159 60 61 4.0 6.0 0.00 0.00 0.00 75 1010.0
20260503020656 60 134 1.0 2.0 0.00 0.00 0.00 75 1010.3
20260503020154 60 177 1.0 1.0 0.00 0.00 0.00 75 1010.2
20260503015650 60 172 1.0 1.0 0.00 0.00 0.00 75 1010.1
20260503015148 60 193 1.0 2.0 0.00 0.00 0.00 74 1010.3
20260503014643 61 191 2.0 3.0 0.00 0.00 0.00 74 1010.2
20260503014142 61 2 3.0 3.0 0.00 0.00 0.00 74 1010.1
20260503013638 61 34 3.0 3.0 0.00 0.00 0.00 73 1010.2
20260503013136 61 162 2.0 3.0 0.00 0.00 0.00 73 1010.2
20260503012633 62 257 3.0 3.0 0.00 0.00 0.00 73 1010.3
20260503012130 62 305 3.0 5.0 0.00 0.00 0.00 73 1010.2
20260503011627 62 343 3.0 5.0 0.00 0.00 0.00 72 1010.3
20260503011124 62 179 1.0 2.0 0.00 0.00 0.00 71 1010.2
20260503010620 62 186 2.0 3.0 0.00 0.00 0.00 72 1010.4
20260503010117 62 168 2.0 2.0 0.00 0.00 0.00 72 1010.1
20260503005614 63 46 6.0 8.0 0.00 0.00 0.00 70 1010.3
20260503005112 63 163 2.0 2.0 0.00 0.00 0.00 70 1010.2
20260503004607 64 326 5.0 5.0 0.00 0.00 0.00 70 1010.3
20260503004106 63 171 3.0 3.0 0.00 0.00 0.00 70 1010.1
20260503003603 64 343 6.0 8.0 0.00 0.00 0.00 70 1010.2
20260503003100 66 356 4.0 5.0 0.00 0.00 0.00 66 1010.3
20260503002556 66 138 3.0 3.0 0.00 0.00 0.00 67 1010.0
20260503002053 67 257 1.0 2.0 0.00 0.00 0.00 65 1010.1
20260503001549 67 141 1.0 1.0 0.00 0.00 0.00 65 1010.1
20260503001047 68 268 3.0 3.0 0.00 0.00 0.00 64 1010.1
20260503000544 67 197 1.0 2.0 0.00 0.00 0.00 65 1010.1
20260503000041 67 5 5.0 8.0 0.00 0.00 0.00 64 1010.1
20260502235537 67 330 3.0 5.0 0.00 0.00 0.00 65 1010.0
20260502235036 67 15 7.0 10.0 0.00 0.00 0.00 64 1010.2
20260502234531 68 189 3.0 3.0 0.00 0.00 0.00 63 1010.0
20260502234029 68 341 5.0 7.0 0.00 0.00 0.00 63 1010.0
20260502233529 68 303 1.0 3.0 0.00 0.00 0.00 62 1009.9
20260502233027 69 358 4.0 5.0 0.00 0.00 0.00 62 1010.0
20260502232523 70 22 3.0 3.0 0.00 0.00 0.00 61 1010.2
20260502232020 69 314 2.0 2.0 0.00 0.00 0.00 62 1010.0
20260502231517 69 147 2.0 2.0 0.00 0.00 0.00 63 1010.1
20260502231015 70 40 5.0 6.0 0.00 0.00 0.00 61 1010.2
20260502230513 71 190 2.0 2.0 0.00 0.00 0.00 60 1010.0
20260502230011 70 169 1.0 1.0 0.00 0.00 0.00 61 1010.3
20260502225511 70 183 3.0 3.0 0.00 0.00 0.00 60 1010.4
20260502225009 70 192 2.0 2.0 0.00 0.00 0.00 61 1010.2
20260502224505 70 339 6.0 8.0 0.00 0.00 0.00 61 1010.5
20260502224002 70 202 3.0 3.0 0.00 0.00 0.00 60 1010.5
20260502223500 71 207 2.0 2.0 0.00 0.00 0.00 59 1010.5
20260502222957 72 197 2.0 2.0 0.00 0.00 0.00 58 1010.5
20260502222455 72 161 2.0 2.0 0.00 0.00 0.00 58 1010.6
20260502221950 72 179 2.0 3.0 0.00 0.00 0.00 57 1010.5
20260502221447 73 201 2.0 3.0 0.00 0.00 0.00 57 1010.8
20260502220944 73 175 0.0 0.0 0.00 0.00 0.00 58 1010.8
20260502220440 73 179 1.0 1.0 0.00 0.00 0.00 57 1010.9
20260502215937 72 180 1.0 1.0 0.00 0.00 0.00 59 1011.0
20260502215434 72 185 1.0 2.0 0.00 0.00 0.00 60 1010.9
20260502214931 71 198 1.0 2.0 0.00 0.00 0.00 60 1011.0
20260502214427 72 194 1.0 2.0 0.00 0.00 0.00 59 1010.9
20260502213925 72 158 1.0 1.0 0.00 0.00 0.00 59 1011.1
20260502213421 71 180 0.0 0.0 0.00 0.00 0.00 61 1011.1
20260502212920 70 181 1.0 1.0 0.00 0.00 0.00 61 1011.1
20260502212419 70 177 2.0 3.0 0.00 0.00 0.00 62 1011.2
20260502211916 71 180 0.0 1.0 0.00 0.00 0.00 61 1011.4
20260502211411 71 179 1.0 1.0 0.00 0.00 0.00 60 1011.3
20260502210909 71 164 0.0 1.0 0.00 0.00 0.00 61 1011.5
20260502210405 71 176 2.0 2.0 0.00 0.00 0.00 61 1011.5
20260502205903 70 177 0.0 1.0 0.00 0.00 0.00 63 1011.7
20260502205358 69 164 1.0 1.0 0.00 0.00 0.00 63 1011.9
20260502204856 69 178 0.0 1.0 0.00 0.00 0.00 64 1012.0
20260502204353 70 171 1.0 2.0 0.00 0.00 0.00 64 1012.1
20260502203850 71 173 0.0 0.0 0.00 0.00 0.00 61 1012.0
20260502203348 70 170 0.0 1.0 0.00 0.00 0.00 63 1012.0
20260502202843 68 190 1.0 2.0 0.00 0.00 0.00 66 1012.1
20260502202341 67 176 2.0 2.0 0.00 0.00 0.00 68 1012.0
20260502201839 67 157 1.0 1.0 0.00 0.00 0.00 67 1012.2
20260502201335 68 192 1.0 1.0 0.00 0.00 0.00 65 1012.2
20260502200831 67 175 3.0 3.0 0.00 0.00 0.00 67 1012.3
20260502200327 66 176 1.0 2.0 0.00 0.00 0.00 69 1012.2
20260502195825 65 172 0.0 1.0 0.00 0.00 0.00 70 1012.5
20260502195321 66 184 1.0 2.0 0.00 0.00 0.00 68 1012.5
20260502194818 65 166 2.0 2.0 0.00 0.00 0.00 71 1012.7
20260502194315 64 150 1.0 2.0 0.00 0.00 0.00 71 1012.5
20260502193811 64 162 2.0 3.0 0.00 0.00 0.00 71 1012.7
20260502193308 64 169 0.0 0.0 0.00 0.00 0.00 73 1012.6
20260502192803 63 172 2.0 2.0 0.00 0.00 0.00 72 1012.7
20260502192304 64 184 3.0 3.0 0.00 0.00 0.00 71 1012.8
20260502191758 63 180 0.0 1.0 0.00 0.00 0.00 73 1013.1
20260502191256 63 170 1.0 1.0 0.00 0.00 0.00 75 1013.1
20260502190753 62 167 0.0 1.0 0.00 0.00 0.00 76 1013.0
20260502190250 61 168 2.0 2.0 0.00 0.00 0.00 76 1012.9
20260502185745 61 173 2.0 3.0 0.00 0.00 0.00 76 1012.8
20260502185241 61 184 1.0 1.0 0.00 0.00 0.00 76 1013.1
20260502184738 61 169 2.0 3.0 0.00 0.00 0.00 76 1013.0
20260502184234 61 167 1.0 1.0 0.00 0.00 0.00 77 1013.0